China Lake, CA

5:32 AM PST on November 19, 2017 (GMT -0800)
China Lake NAWS

Weather History for KNID - October, 2013

Change the Weather History Date:

Monday, October 14, 2013

  Actual Average Record
Temperature  
Mean Temperature 59 °F -  
Max Temperature 73 °F 81 °F 95 °F (2011)
Min Temperature 45 °F 51 °F 41 °F (1997)
Degree Days  
Heating Degree Days 6    
Growing Degree Days 9 (Base 50)    
Moisture  
Dew Point 27 °F    
Average Humidity 31    
Maximum Humidity 52    
Minimum Humidity 18    
Precipitation  
Precipitation 0.00 in - - ()
Sea Level Pressure  
Sea Level Pressure 30.07 in    
Wind  
Wind Speed 5 mph (SSW)    
Max Wind Speed 10 mph    
Max Gust Speed -    
Visibility 10 miles    
Events      
Averages and records for this station are not official NWS values.
T = Trace of Precipitation, MM = Missing Value Source: NWS Daily Summary

Daily Weather History Graph

Daily Weather History Graph

Search for Another Location

Airport or City:

Trip Planner

Search our weather history database for the weather conditions in past years. The results will help you decide how hot, cold, wet, or windy it might be!

Date:

Astronomy

Oct. 14, 2013 Rise Set
Actual Time 6:56 AM PDT 6:16 PM PDT
Civil Twilight 6:30 AM PDT 6:41 PM PDT
Nautical Twilight 6:01 AM PDT 7:11 PM PDT
Astronomical Twilight 5:31 AM PDT 7:40 PM PDT
Moon 3:41 PM PDT (10/14) 2:26 AM PDT (10/14)
Length of Visible Light 12h 10m
Length of Day
11h 19m
Waxing Gibbous, 80% of the Moon is Illuminated
Oct 14
Waxing Gibbous
Oct 18
Full
Oct 26
Last Quarter
Nov 3
New
Nov 9
First Quarter

Hourly Weather History & Observations

Time (PDT) Temp. Windchill Dew Point Humidity Pressure Visibility Wind Dir Wind Speed Gust Speed Precip Events Conditions
12:56 AM 54.0 °F - 27.0 °F 35% 30.04 in 10.0 mi WSW 6.9 mph - N/A   Clear
1:56 AM 51.1 °F - 27.0 °F 39% 30.06 in 10.0 mi NNE 3.5 mph - N/A   Clear
2:56 AM 53.1 °F - 28.9 °F 40% 30.06 in 10.0 mi WNW 9.2 mph - N/A   Clear
3:56 AM 50.0 °F - 28.0 °F 43% 30.07 in 10.0 mi Calm Calm - N/A   Clear
4:56 AM 48.9 °F - 28.9 °F 46% 30.09 in 10.0 mi Calm Calm - N/A   Clear
5:56 AM 50.0 °F - 30.0 °F 46% 30.10 in 10.0 mi WNW 8.1 mph - N/A   Clear
6:56 AM 45.0 °F 42.6 °F 28.0 °F 52% 30.13 in 10.0 mi NNW 4.6 mph - N/A   Clear
7:56 AM 52.0 °F - 28.9 °F 41% 30.15 in 10.0 mi ESE 4.6 mph - N/A   Clear
8:56 AM 60.1 °F - 30.9 °F 33% 30.15 in 10.0 mi NW 4.6 mph - N/A   Clear
9:56 AM 64.0 °F - 30.0 °F 28% 30.14 in 10.0 mi Calm Calm - N/A   Clear
10:56 AM 68.0 °F - 28.9 °F 23% 30.14 in 10.0 mi Calm Calm - N/A   Clear
11:56 AM 70.0 °F - 28.9 °F 22% 30.12 in 10.0 mi Variable 6.9 mph - N/A   Clear
12:56 PM 70.0 °F - 28.9 °F 22% 30.09 in 10.0 mi Variable 4.6 mph - N/A   Clear
1:56 PM 73.0 °F - 28.9 °F 20% 30.06 in 10.0 mi Variable 5.8 mph - N/A   Clear
2:56 PM 72.0 °F - 28.0 °F 20% 30.04 in 10.0 mi SE 5.8 mph - N/A   Clear
3:56 PM 73.0 °F - 28.0 °F 19% 30.02 in 10.0 mi Calm Calm - N/A   Clear
4:56 PM 73.0 °F - 27.0 °F 18% 30.01 in 10.0 mi East 4.6 mph - N/A   Clear
5:56 PM 71.1 °F - 27.0 °F 19% 30.01 in 10.0 mi ESE 5.8 mph - N/A   Clear
6:56 PM 64.9 °F - 24.1 °F 21% 30.03 in 10.0 mi SSE 3.5 mph - N/A   Clear
7:56 PM 61.0 °F - 24.1 °F 24% 30.04 in 10.0 mi South 4.6 mph - N/A   Clear
8:56 PM 57.9 °F - 24.1 °F 27% 30.05 in 10.0 mi SW 3.5 mph - N/A   Clear
9:56 PM 57.0 °F - 24.1 °F 28% 30.06 in 10.0 mi SW 10.4 mph - N/A   Clear
10:56 PM 53.1 °F - 24.1 °F 32% 30.06 in 10.0 mi SSW 5.8 mph - N/A   Clear
11:56 PM 51.1 °F - 24.1 °F 35% 30.05 in 10.0 mi SSW 9.2 mph - N/A   Clear